sat.trackr.live / text

‹ back to catalog

STARLINK-32448

NORAD 62206 · 2024-229Q

PAYLOAD ACTIVE UNKNOWN

§ Identity

Operator
Country
US
Launch date
2024-12-04
Launch site
AFETR
Launch vehicle
Mass (kg)
RCS (m²)

Purposes: comms

External: N2YO · Heavens-Above · Gunter

§ Orbital elements

Epoch: 2026-05-25T04:21:45.190656Z

Period
94.27 min
Inclination
42.9991°
Eccentricity
0.0001037
Mean motion
15.27587498 rev/d
Perigee alt
482.3 km
Apogee alt
483.7 km
Semi-major
6,861.2 km
B*
4.0561e-4
RAAN
198.4023°
Arg perigee
273.9351°
Mean anomaly
86.1382°
Rev number
8,226

§ Raw data

STARLINK-324481 62206U 24229Q   26145.18177304  .00010918  00000+0  40561-3 0  99912 62206  42.9991 198.4023 0001037 273.9351  86.1382 15.27587498 82262

JSON: /api/v1/satellites/62206 · /tle

For live sub-satellite position, see the globe view (requires WebGL).

§ Visibility from observer

Set your observer location to see the next 7 days of passes ≥ 10°. The values pass through the URL so the page stays shareable.

No JS? Fill the form by hand. The geolocation button needs JavaScript.